AT784 Weather Reports


Display with metric or nautical units.
time (UTC)temp
F
wind
direction
speed
MPH
gust
MPH
rain 1hr
in
rain 24hr
in
rain mn
in
humidity
%
barometer
mb
20260504223904 74 209 4.0 13.0 0.00 0.00 0.00 40 996.5
20260504223803 74 213 4.0 13.0 0.00 0.00 0.00 40 996.5
20260504223704 74 214 5.0 13.0 0.00 0.00 0.00 40 996.6
20260504223604 74 209 5.0 13.0 0.00 0.00 0.00 40 996.6
20260504223504 74 210 5.0 13.0 0.00 0.00 0.00 40 996.6
20260504223425 74 211 5.0 13.0 0.00 0.00 0.00 39 996.6
20260504223304 73 216 5.0 13.0 0.00 0.00 0.00 40 996.6
20260504223203 73 215 5.0 13.0 0.00 0.00 0.00 40 996.6
20260504223104 73 217 5.0 13.0 0.00 0.00 0.00 41 996.7
20260504223004 73 216 5.0 13.0 0.00 0.00 0.00 41 996.7
20260504222925 73 219 5.0 12.0 0.00 0.00 0.00 41 996.8
20260504222803 73 219 5.0 12.0 0.00 0.00 0.00 41 996.7
20260504222704 73 214 5.0 12.0 0.00 0.00 0.00 41 996.7
20260504222604 73 214 5.0 12.0 0.00 0.00 0.00 41 996.7
20260504222504 73 208 5.0 12.0 0.00 0.00 0.00 42 996.7
20260504222404 73 208 6.0 12.0 0.00 0.00 0.00 42 996.8
20260504222305 73 206 6.0 11.0 0.00 0.00 0.00 42 996.8
20260504222204 72 205 6.0 15.0 0.00 0.00 0.00 42 996.8
20260504222104 72 201 6.0 15.0 0.00 0.00 0.00 42 996.8
20260504222003 72 203 6.0 15.0 0.00 0.00 0.00 42 996.8
20260504221903 72 202 7.0 15.0 0.00 0.00 0.00 42 996.8
20260504221804 72 203 6.0 15.0 0.00 0.00 0.00 41 996.9
20260504221704 72 208 6.0 15.0 0.00 0.00 0.00 42 996.9
20260504221625 72 211 6.0 15.0 0.00 0.00 0.00 41 996.9
20260504221503 72 218 6.0 15.0 0.00 0.00 0.00 42 996.9
20260504221403 72 218 6.0 15.0 0.00 0.00 0.00 41 996.9
20260504221325 72 218 6.0 15.0 0.00 0.00 0.00 41 996.9
20260504221204 72 224 5.0 10.0 0.00 0.00 0.00 41 996.9
20260504221104 72 223 5.0 11.0 0.00 0.00 0.00 41 996.9
20260504221025 72 226 5.0 11.0 0.00 0.00 0.00 42 996.9
20260504220904 72 224 5.0 13.0 0.00 0.00 0.00 42 997.0
20260504220825 72 225 5.0 13.0 0.00 0.00 0.00 42 996.9
20260504220725 72 223 5.0 13.0 0.00 0.00 0.00 43 996.9
20260504220625 72 225 5.0 13.0 0.00 0.00 0.00 43 997.0
20260504220503 72 227 5.0 13.0 0.00 0.00 0.00 44 997.0
20260504220403 72 226 5.0 14.0 0.00 0.00 0.00 44 997.0
20260504220304 72 228 5.0 14.0 0.00 0.00 0.00 44 997.1
20260504220204 72 228 6.0 14.0 0.00 0.00 0.00 44 997.1
20260504220103 72 230 6.0 14.0 0.00 0.00 0.00 45 997.0
20260504220004 72 230 6.0 14.0 0.00 0.00 0.00 45 997.1
20260504215925 72 230 6.0 14.0 0.00 0.00 0.00 45 997.1
20260504215804 72 227 6.0 15.0 0.00 0.00 0.00 45 997.0
20260504215704 72 221 6.0 15.0 0.00 0.00 0.00 45 997.0
20260504215603 72 212 6.0 15.0 0.00 0.00 0.00 45 997.0
20260504215504 72 206 6.0 15.0 0.00 0.00 0.00 46 997.0
20260504215424 72 204 6.0 15.0 0.00 0.00 0.00 45 997.0
20260504215304 72 200 6.0 15.0 0.00 0.00 0.00 46 997.1
20260504215204 72 198 6.0 15.0 0.00 0.00 0.00 46 997.1
20260504215125 72 198 6.0 15.0 0.00 0.00 0.00 46 997.1
20260504215004 72 198 6.0 15.0 0.00 0.00 0.00 45 997.0
20260504214903 72 195 5.0 15.0 0.00 0.00 0.00 46 997.0
20260504214803 72 196 6.0 14.0 0.00 0.00 0.00 46 997.1
20260504214704 72 199 6.0 14.0 0.00 0.00 0.00 46 997.1
20260504214604 72 209 6.0 14.0 0.00 0.00 0.00 46 997.1
20260504214504 72 209 6.0 14.0 0.00 0.00 0.00 46 997.2
20260504214403 72 211 6.0 14.0 0.00 0.00 0.00 47 997.2
20260504214303 72 210 6.0 14.0 0.00 0.00 0.00 46 997.2
20260504214204 72 210 6.0 14.0 0.00 0.00 0.00 46 997.2
20260504214104 72 211 6.0 14.0 0.00 0.00 0.00 46 997.2
20260504214005 72 207 6.0 13.0 0.00 0.00 0.00 46 997.2
20260504213925 72 207 6.0 13.0 0.00 0.00 0.00 46 997.2
20260504213803 72 212 6.0 13.0 0.00 0.00 0.00 46 997.2
20260504213703 72 213 6.0 13.0 0.00 0.00 0.00 46 997.2
20260504213625 72 214 6.0 15.0 0.00 0.00 0.00 46 997.2
20260504213504 72 215 5.0 15.0 0.00 0.00 0.00 46 997.3
20260504213424 72 215 5.0 15.0 0.00 0.00 0.00 46 997.3
20260504213303 72 217 5.0 15.0 0.00 0.00 0.00 47 997.3
20260504213203 72 219 5.0 15.0 0.00 0.00 0.00 47 997.3
20260504213103 72 216 6.0 15.0 0.00 0.00 0.00 47 997.3
20260504213004 72 218 6.0 15.0 0.00 0.00 0.00 47 997.3
20260504212904 72 216 6.0 15.0 0.00 0.00 0.00 48 997.3
20260504212803 72 213 6.0 15.0 0.00 0.00 0.00 47 997.3
20260504212703 72 211 5.0 15.0 0.00 0.00 0.00 47 997.3
20260504212604 72 204 5.0 15.0 0.00 0.00 0.00 48 997.4
20260504212504 72 206 6.0 15.0 0.00 0.00 0.00 48 997.4
20260504212425 72 209 6.0 15.0 0.00 0.00 0.00 48 997.3
20260504212304 72 211 6.0 15.0 0.00 0.00 0.00 48 997.3
20260504212203 72 210 6.0 15.0 0.00 0.00 0.00 48 997.5
20260504212104 72 212 6.0 15.0 0.00 0.00 0.00 49 997.4
20260504212003 72 213 6.0 15.0 0.00 0.00 0.00 49 997.4
20260504211903 72 217 6.0 15.0 0.00 0.00 0.00 49 997.4
20260504211803 71 220 6.0 15.0 0.00 0.00 0.00 48 997.4
20260504211724 71 221 6.0 15.0 0.00 0.00 0.00 49 997.4
20260504211603 71 220 7.0 15.0 0.00 0.00 0.00 49 997.5
20260504211504 71 217 7.0 14.0 0.00 0.00 0.00 49 997.5
20260504211403 71 217 7.0 14.0 0.00 0.00 0.00 50 997.5
20260504211303 71 215 7.0 14.0 0.00 0.00 0.00 50 997.5
20260504211203 71 216 7.0 17.0 0.00 0.00 0.00 49 997.5
20260504211104 71 217 7.0 17.0 0.00 0.00 0.00 49 997.6
20260504211025 71 216 7.0 17.0 0.00 0.00 0.00 49 997.6
20260504210924 71 214 7.0 17.0 0.00 0.00 0.00 50 997.7
20260504210824 71 209 7.0 17.0 0.00 0.00 0.00 49 997.7
20260504210703 71 207 7.0 17.0 0.00 0.00 0.00 49 997.6
20260504210604 71 211 7.0 17.0 0.00 0.00 0.00 50 997.6
20260504210504 71 212 7.0 17.0 0.00 0.00 0.00 50 997.6
20260504210403 71 209 7.0 17.0 0.00 0.00 0.00 50 997.6
20260504210324 71 211 7.0 17.0 0.00 0.00 0.00 49 997.6
20260504210204 71 206 7.0 15.0 0.00 0.00 0.00 50 997.7
20260504210124 71 206 7.0 15.0 0.00 0.00 0.00 50 997.7
20260504210004 71 211 7.0 15.0 0.00 0.00 0.00 50 997.7
20260504205903 72 213 7.0 15.0 0.00 0.00 0.00 50 997.7
20260504205803 72 219 6.0 14.0 0.00 0.00 0.00 51 997.7
20260504205703 71 219 7.0 14.0 0.00 0.00 0.00 52 997.7
20260504205603 71 218 7.0 16.0 0.00 0.00 0.00 52 997.8
20260504205504 71 216 7.0 16.0 0.00 0.00 0.00 51 997.8
20260504205404 71 214 7.0 16.0 0.00 0.00 0.00 52 997.8
20260504205304 71 212 7.0 16.0 0.00 0.00 0.00 52 997.9
20260504205203 71 215 7.0 16.0 0.00 0.00 0.00 52 997.9
20260504205103 71 215 7.0 16.0 0.00 0.00 0.00 51 997.9
20260504205003 71 214 7.0 16.0 0.00 0.00 0.00 52 997.9
20260504204903 71 214 7.0 16.0 0.00 0.00 0.00 52 997.9
20260504204804 71 214 7.0 16.0 0.00 0.00 0.00 52 997.9
20260504204703 71 218 7.0 16.0 0.00 0.00 0.00 52 997.9
20260504204624 71 219 7.0 15.0 0.00 0.00 0.00 52 998.0
20260504204503 71 219 6.0 18.0 0.00 0.00 0.00 52 997.9
20260504204404 71 226 6.0 18.0 0.00 0.00 0.00 53 997.9
20260504204303 71 226 7.0 18.0 0.00 0.00 0.00 53 997.9
20260504204204 71 223 7.0 18.0 0.00 0.00 0.00 53 997.9
20260504204104 71 225 7.0 18.0 0.00 0.00 0.00 53 997.9
20260504204024 71 224 7.0 18.0 0.00 0.00 0.00 53 998.0
20260504203903 70 223 7.0 18.0 0.00 0.00 0.00 53 998.0
20260504203804 70 219 7.0 18.0 0.00 0.00 0.00 53 998.0
20260504203703 70 217 7.0 18.0 0.00 0.00 0.00 53 998.0
20260504203624 70 216 7.0 18.0 0.00 0.00 0.00 53 998.0
20260504203503 70 216 8.0 17.0 0.00 0.00 0.00 53 998.0
20260504203403 70 211 8.0 18.0 0.00 0.00 0.00 53 998.0
20260504203303 70 208 7.0 18.0 0.00 0.00 0.00 53 998.0
20260504203203 70 210 7.0 18.0 0.00 0.00 0.00 53 998.0
20260504203103 70 206 7.0 18.0 0.00 0.00 0.00 53 998.0
20260504203004 70 205 7.0 18.0 0.00 0.00 0.00 53 998.1
20260504202924 70 206 7.0 18.0 0.00 0.00 0.00 53 998.1
20260504202824 70 206 7.0 18.0 0.00 0.00 0.00 54 998.1
20260504202703 70 206 7.0 18.0 0.00 0.00 0.00 54 998.2
20260504202603 70 205 7.0 18.0 0.00 0.00 0.00 53 998.2
20260504202504 70 211 7.0 18.0 0.00 0.00 0.00 54 998.2
20260504202424 69 214 7.0 18.0 0.00 0.00 0.00 54 998.2
20260504202304 69 216 7.0 15.0 0.00 0.00 0.00 54 998.2
20260504202204 69 221 7.0 15.0 0.00 0.00 0.00 54 998.2
20260504202103 69 224 7.0 15.0 0.00 0.00 0.00 54 998.2
20260504202003 69 223 7.0 15.0 0.00 0.00 0.00 54 998.3
20260504201903 69 226 7.0 15.0 0.00 0.00 0.00 55 998.3
20260504201803 69 227 7.0 15.0 0.00 0.00 0.00 54 998.3
20260504201703 69 227 7.0 15.0 0.00 0.00 0.00 55 998.4
20260504201603 69 227 7.0 15.0 0.00 0.00 0.00 55 998.4
20260504201503 69 226 7.0 15.0 0.00 0.00 0.00 55 998.4
20260504201424 69 228 7.0 18.0 0.00 0.00 0.00 54 998.4
20260504201324 69 224 7.0 18.0 0.00 0.00 0.00 54 998.3
20260504201203 69 220 6.0 18.0 0.00 0.00 0.00 55 998.3
20260504201104 69 221 7.0 18.0 0.00 0.00 0.00 55 998.3
20260504201004 69 220 7.0 18.0 0.00 0.00 0.00 55 998.4
20260504200924 69 222 7.0 18.0 0.00 0.00 0.00 55 998.4
20260504200803 68 221 7.0 18.0 0.00 0.00 0.00 55 998.3
20260504200703 68 222 7.0 18.0 0.00 0.00 0.00 55 998.3
20260504200603 68 223 7.0 18.0 0.00 0.00 0.00 55 998.3
20260504200503 69 224 7.0 18.0 0.00 0.00 0.00 55 998.3
20260504200403 69 225 6.0 17.0 0.00 0.00 0.00 54 998.4
20260504200303 69 230 7.0 16.0 0.00 0.00 0.00 55 998.4
20260504200203 68 233 7.0 16.0 0.00 0.00 0.00 55 998.3
20260504200125 68 229 7.0 16.0 0.00 0.00 0.00 55 998.3
20260504200003 68 232 8.0 20.0 0.00 0.00 0.00 55 998.4
20260504195903 68 233 8.0 20.0 0.00 0.00 0.00 55 998.5
20260504195803 68 233 8.0 21.0 0.00 0.00 0.00 55 998.5
20260504195704 68 231 8.0 21.0 0.00 0.00 0.00 55 998.5
20260504195604 68 230 8.0 21.0 0.00 0.00 0.00 55 998.4
20260504195503 68 227 8.0 21.0 0.00 0.00 0.00 54 998.4
20260504195403 68 224 8.0 21.0 0.00 0.00 0.00 54 998.6
20260504195304 68 222 8.0 21.0 0.00 0.00 0.00 54 998.6
20260504195224 68 220 8.0 21.0 0.00 0.00 0.00 54 998.5
20260504195124 68 221 8.0 21.0 0.00 0.00 0.00 54 998.5
20260504195003 68 217 8.0 21.0 0.00 0.00 0.00 54 998.7
20260504194903 68 215 8.0 21.0 0.00 0.00 0.00 54 998.7
20260504194803 68 216 8.0 20.0 0.00 0.00 0.00 54 998.7
20260504194703 68 216 8.0 21.0 0.00 0.00 0.00 54 998.7
20260504194624 68 216 8.0 21.0 0.00 0.00 0.00 54 998.7
20260504194507 68 218 8.0 21.0 0.00 0.00 0.00 54 998.7
20260504194428 68 218 8.0 21.0 0.00 0.00 0.00 54 998.7
20260504194307 68 221 7.0 21.0 0.00 0.00 0.00 53 998.6
20260504194207 68 218 7.0 21.0 0.00 0.00 0.00 53 998.6
20260504194106 69 220 7.0 21.0 0.00 0.00 0.00 53 998.7
20260504194006 69 225 7.0 21.0 0.00 0.00 0.00 53 998.7
20260504193906 69 223 7.0 21.0 0.00 0.00 0.00 53 998.9
20260504193807 69 225 7.0 21.0 0.00 0.00 0.00 53 998.7
20260504193706 69 225 7.0 19.0 0.00 0.00 0.00 53 998.7
20260504193606 69 224 7.0 19.0 0.00 0.00 0.00 53 998.7
20260504193507 69 221 7.0 19.0 0.00 0.00 0.00 53 998.7
20260504193427 69 221 7.0 19.0 0.00 0.00 0.00 54 998.7
20260504193307 68 218 7.0 19.0 0.00 0.00 0.00 54 998.7
20260504193206 68 223 7.0 19.0 0.00 0.00 0.00 54 998.7
20260504193106 68 222 7.0 19.0 0.00 0.00 0.00 53 998.8
20260504193028 68 220 7.0 19.0 0.00 0.00 0.00 53 998.8
20260504192928 68 218 7.0 18.0 0.00 0.00 0.00 53 998.7
20260504192828 69 215 7.0 15.0 0.00 0.00 0.00 53 998.6
20260504192706 69 218 7.0 15.0 0.00 0.00 0.00 53 998.6
20260504192606 69 220 7.0 15.0 0.00 0.00 0.00 53 998.7
20260504192506 69 223 7.0 15.0 0.00 0.00 0.00 53 998.7
20260504192406 68 224 7.0 15.0 0.00 0.00 0.00 54 998.7
20260504192307 68 227 7.0 15.0 0.00 0.00 0.00 54 998.7
20260504192207 68 226 7.0 15.0 0.00 0.00 0.00 54 998.7
20260504192128 68 224 7.0 15.0 0.00 0.00 0.00 54 998.7
20260504192006 68 224 7.0 15.0 0.00 0.00 0.00 53 998.7
20260504191906 68 227 7.0 15.0 0.00 0.00 0.00 53 998.7
20260504191827 68 228 7.0 15.0 0.00 0.00 0.00 53 998.8
20260504191706 68 225 7.0 15.0 0.00 0.00 0.00 53 998.8
20260504191607 68 223 7.0 15.0 0.00 0.00 0.00 53 998.8
20260504191527 68 221 7.0 15.0 0.00 0.00 0.00 54 998.8
20260504191406 68 217 7.0 15.0 0.00 0.00 0.00 53 998.7
20260504191327 67 217 7.0 15.0 0.00 0.00 0.00 53 998.7
20260504191206 67 218 8.0 15.0 0.00 0.00 0.00 53 998.7
20260504191127 67 218 8.0 16.0 0.00 0.00 0.00 53 998.7
20260504191007 67 217 7.0 16.0 0.00 0.00 0.00 53 998.8
20260504190906 67 214 7.0 16.0 0.00 0.00 0.00 53 998.8
20260504190807 67 214 7.0 16.0 0.00 0.00 0.00 53 998.8
20260504190707 67 213 7.0 16.0 0.00 0.00 0.00 53 998.8
20260504190606 67 210 7.0 16.0 0.00 0.00 0.00 53 998.8
20260504190506 67 210 7.0 16.0 0.00 0.00 0.00 53 998.8
20260504190427 67 210 7.0 16.0 0.00 0.00 0.00 52 998.8
20260504190307 67 205 7.0 16.0 0.00 0.00 0.00 52 998.8
20260504190206 67 201 7.0 18.0 0.00 0.00 0.00 52 998.8
20260504190127 67 201 7.0 18.0 0.00 0.00 0.00 52 998.8
20260504190007 67 201 7.0 18.0 0.00 0.00 0.00 52 998.8
20260504185906 67 201 7.0 18.0 0.00 0.00 0.00 52 998.8
20260504185807 67 198 7.0 18.0 0.00 0.00 0.00 52 999.0
20260504185706 67 201 7.0 18.0 0.00 0.00 0.00 52 998.9
20260504185607 67 207 7.0 18.0 0.00 0.00 0.00 52 998.9
20260504185506 66 208 7.0 18.0 0.00 0.00 0.00 52 998.9
20260504185407 66 208 7.0 18.0 0.00 0.00 0.00 52 998.9
20260504185306 66 212 6.0 18.0 0.00 0.00 0.00 51 998.9
20260504185207 66 213 6.0 17.0 0.00 0.00 0.00 51 999.0
20260504185107 66 216 6.0 17.0 0.00 0.00 0.00 51 999.0
20260504185007 67 221 6.0 15.0 0.00 0.00 0.00 51 998.9
20260504184906 67 222 7.0 15.0 0.00 0.00 0.00 50 999.0
20260504184806 67 225 7.0 15.0 0.00 0.00 0.00 50 999.0
20260504184728 67 225 7.0 15.0 0.00 0.00 0.00 50 999.0
20260504184607 67 224 7.0 15.0 0.00 0.00 0.00 51 999.0
20260504184506 66 224 7.0 15.0 0.00 0.00 0.00 50 999.0
20260504184406 66 226 7.0 14.0 0.00 0.00 0.00 51 999.0
20260504184306 66 222 7.0 14.0 0.00 0.00 0.00 50 999.0
20260504184206 66 228 7.0 17.0 0.00 0.00 0.00 50 999.1
20260504184107 66 227 7.0 17.0 0.00 0.00 0.00 51 999.1
20260504184027 67 225 7.0 17.0 0.00 0.00 0.00 50 999.1
20260504183928 67 223 6.0 17.0 0.00 0.00 0.00 50 999.1
20260504183806 67 225 6.0 20.0 0.00 0.00 0.00 52 999.1
20260504183706 66 225 6.0 20.0 0.00 0.00 0.00 51 999.1
20260504183627 66 222 6.0 20.0 0.00 0.00 0.00 52 999.1
20260504183506 66 223 6.0 20.0 0.00 0.00 0.00 52 999.2
20260504183427 66 219 6.0 20.0 0.00 0.00 0.00 51 999.3
20260504183306 66 223 6.0 20.0 0.00 0.00 0.00 52 999.3
20260504183206 66 218 6.0 20.0 0.00 0.00 0.00 53 999.3
20260504183106 66 216 6.0 20.0 0.00 0.00 0.00 53 999.2
20260504183007 66 219 6.0 20.0 0.00 0.00 0.00 52 999.2
20260504182906 66 219 7.0 18.0 0.00 0.00 0.00 52 999.3
20260504182806 66 222 7.0 18.0 0.00 0.00 0.00 53 999.3
20260504182706 66 219 7.0 18.0 0.00 0.00 0.00 53 999.2
20260504182606 66 219 7.0 18.0 0.00 0.00 0.00 52 999.2
20260504182507 66 220 7.0 18.0 0.00 0.00 0.00 52 999.2
20260504182427 66 224 7.0 18.0 0.00 0.00 0.00 51 999.3
20260504182306 66 224 7.0 18.0 0.00 0.00 0.00 52 999.1
20260504182206 66 225 7.0 18.0 0.00 0.00 0.00 52 999.1
20260504182107 65 227 7.0 18.0 0.00 0.00 0.00 52 999.3
20260504182006 65 224 7.0 18.0 0.00 0.00 0.00 51 999.3
20260504181906 65 220 6.0 18.0 0.00 0.00 0.00 52 999.3
20260504181806 65 219 6.0 13.0 0.00 0.00 0.00 52 999.3
20260504181706 65 221 6.0 13.0 0.00 0.00 0.00 52 999.3
20260504181607 65 221 6.0 12.0 0.00 0.00 0.00 52 999.3
20260504181507 65 222 6.0 12.0 0.00 0.00 0.00 52 999.3
20260504181406 65 220 6.0 12.0 0.00 0.00 0.00 53 999.4
20260504181327 65 220 6.0 12.0 0.00 0.00 0.00 52 999.4
20260504181206 65 219 6.0 12.0 0.00 0.00 0.00 53 999.3
20260504181106 65 220 6.0 12.0 0.00 0.00 0.00 53 999.3
20260504181028 65 221 6.0 13.0 0.00 0.00 0.00 53 999.3
20260504180906 65 218 7.0 15.0 0.00 0.00 0.00 52 999.4
20260504180806 65 217 7.0 15.0 0.00 0.00 0.00 52 999.3
20260504180727 65 217 7.0 15.0 0.00 0.00 0.00 53 999.3
20260504180606 65 217 7.0 15.0 0.00 0.00 0.00 53 999.4
20260504180507 65 213 6.0 15.0 0.00 0.00 0.00 53 999.5
20260504180406 65 212 6.0 15.0 0.00 0.00 0.00 53 999.5
20260504180306 65 211 6.0 15.0 0.00 0.00 0.00 53 999.4
20260504180206 65 215 7.0 15.0 0.00 0.00 0.00 52 999.4
20260504180106 65 217 6.0 15.0 0.00 0.00 0.00 52 999.5
20260504180006 65 213 6.0 15.0 0.00 0.00 0.00 51 999.5
20260504175906 65 219 6.0 13.0 0.00 0.00 0.00 51 999.5
20260504175807 65 219 6.0 13.0 0.00 0.00 0.00 51 999.5
20260504175706 66 218 6.0 13.0 0.00 0.00 0.00 51 999.5
20260504175606 65 218 5.0 13.0 0.00 0.00 0.00 51 999.4
20260504175527 65 219 5.0 13.0 0.00 0.00 0.00 52 999.4
20260504175406 65 221 6.0 13.0 0.00 0.00 0.00 52 999.5
20260504175306 65 221 6.0 13.0 0.00 0.00 0.00 52 999.4
20260504175206 65 217 5.0 13.0 0.00 0.00 0.00 52 999.4
20260504175127 65 213 5.0 11.0 0.00 0.00 0.00 52 999.4
20260504175006 65 220 5.0 11.0 0.00 0.00 0.00 50 999.4
20260504174906 65 219 5.0 11.0 0.00 0.00 0.00 52 999.4
20260504174806 65 222 5.0 11.0 0.00 0.00 0.00 52 999.5
20260504174706 65 220 5.0 12.0 0.00 0.00 0.00 52 999.4
20260504174606 65 221 5.0 12.0 0.00 0.00 0.00 52 999.4
20260504174506 65 219 5.0 12.0 0.00 0.00 0.00 51 999.4
20260504174406 65 217 5.0 12.0 0.00 0.00 0.00 51 999.4
20260504174306 65 216 5.0 12.0 0.00 0.00 0.00 51 999.5
20260504174227 65 218 5.0 12.0 0.00 0.00 0.00 52 999.5
20260504174106 65 223 5.0 13.0 0.00 0.00 0.00 52 999.4
20260504174006 64 219 6.0 15.0 0.00 0.00 0.00 51 999.6
20260504173906 64 214 5.0 15.0 0.00 0.00 0.00 52 999.6
20260504173827 64 213 5.0 15.0 0.00 0.00 0.00 51 999.5
20260504173706 64 216 5.0 15.0 0.00 0.00 0.00 51 999.5
20260504173606 64 217 5.0 15.0 0.00 0.00 0.00 51 999.5
20260504173506 64 217 5.0 15.0 0.00 0.00 0.00 52 999.5
20260504173406 64 220 6.0 15.0 0.00 0.00 0.00 52 999.5
20260504173327 64 220 6.0 15.0 0.00 0.00 0.00 52 999.6
20260504173206 64 219 6.0 15.0 0.00 0.00 0.00 50 999.6
20260504173106 64 214 6.0 15.0 0.00 0.00 0.00 51 999.6
20260504173006 64 211 5.0 13.0 0.00 0.00 0.00 51 999.6
20260504172906 64 206 6.0 13.0 0.00 0.00 0.00 51 999.6
20260504172806 64 209 5.0 13.0 0.00 0.00 0.00 51 999.6
20260504172706 64 208 5.0 13.0 0.00 0.00 0.00 51 999.6
20260504172607 64 207 6.0 13.0 0.00 0.00 0.00 53 999.6
20260504172506 63 207 6.0 13.0 0.00 0.00 0.00 53 999.7
20260504172406 63 201 5.0 12.0 0.00 0.00 0.00 53 999.6
20260504172306 63 202 6.0 14.0 0.00 0.00 0.00 53 999.6
20260504172206 63 204 6.0 14.0 0.00 0.00 0.00 53 999.7
20260504172106 63 205 6.0 14.0 0.00 0.00 0.00 53 999.7
20260504172006 63 210 6.0 14.0 0.00 0.00 0.00 53 999.7
20260504171907 63 216 6.0 14.0 0.00 0.00 0.00 55 999.8
20260504171806 63 214 6.0 14.0 0.00 0.00 0.00 54 999.8
20260504171706 63 217 6.0 14.0 0.00 0.00 0.00 54 999.8
20260504171606 63 220 6.0 14.0 0.00 0.00 0.00 55 999.9
20260504171507 62 223 7.0 14.0 0.00 0.00 0.00 55 999.9
20260504171407 62 229 7.0 18.0 0.00 0.00 0.00 54 1000.0
20260504171306 62 230 6.0 18.0 0.00 0.00 0.00 55 1000.0
20260504171227 62 228 6.0 18.0 0.00 0.00 0.00 55 1000.0
20260504171106 62 229 6.0 18.0 0.00 0.00 0.00 54 1000.0
20260504171006 62 228 6.0 18.0 0.00 0.00 0.00 54 1000.0
20260504170907 62 226 6.0 18.0 0.00 0.00 0.00 54 1000.0
20260504170806 62 226 6.0 18.0 0.00 0.00 0.00 54 1000.0
20260504170706 63 221 6.0 18.0 0.00 0.00 0.00 54 1000.0
20260504170606 63 221 6.0 18.0 0.00 0.00 0.00 55 1000.0
20260504170506 63 221 6.0 18.0 0.00 0.00 0.00 54 1000.0
20260504170427 63 217 6.0 13.0 0.00 0.00 0.00 54 1000.0
20260504170327 62 215 6.0 14.0 0.00 0.00 0.00 55 1000.0
20260504170206 62 215 6.0 14.0 0.00 0.00 0.00 55 1000.1
20260504170106 62 208 6.0 14.0 0.00 0.00 0.00 54 1000.2
20260504160406 62 228 6.0 12.0 0.00 0.00 0.00 55 1000.5
20260504160306 61 227 6.0 12.0 0.00 0.00 0.00 56 1000.5
20260504160227 61 224 6.0 12.0 0.00 0.00 0.00 55 1000.5
20260504160106 61 226 6.0 13.0 0.00 0.00 0.00 56 1000.5
20260504151127 60 231 4.0 11.0 0.00 0.00 0.00 60 1001.1
20260504151006 60 229 4.0 11.0 0.00 0.00 0.00 61 1001.0
20260504150906 60 230 4.0 11.0 0.00 0.00 0.00 60 1001.0
20260504150806 60 229 4.0 11.0 0.00 0.00 0.00 61 1001.0
20260504150706 60 229 4.0 11.0 0.00 0.00 0.00 61 1001.0
20260504150606 59 226 4.0 11.0 0.00 0.00 0.00 60 1001.0
20260504150527 59 222 4.0 11.0 0.00 0.00 0.00 61 1001.0
20260504150427 59 220 4.0 11.0 0.00 0.00 0.00 60 1001.2
20260504150306 59 222 4.0 11.0 0.00 0.00 0.00 60 1001.2
20260504150206 59 219 4.0 11.0 0.00 0.00 0.00 62 1001.2
20260504150106 59 225 4.0 11.0 0.00 0.00 0.00 63 1001.2
20260504141306 56 213 4.0 9.0 0.00 0.00 0.00 69 1001.5
20260504141205 57 216 4.0 9.0 0.00 0.00 0.00 69 1001.6
20260504141106 57 213 4.0 11.0 0.00 0.00 0.00 69 1001.6
20260504141027 57 208 4.0 11.0 0.00 0.00 0.00 69 1001.6
20260504140906 56 205 4.0 11.0 0.00 0.00 0.00 70 1001.7
20260504140806 56 200 4.0 11.0 0.00 0.00 0.00 69 1001.7
20260504140727 56 201 4.0 11.0 0.00 0.00 0.00 69 1001.7
20260504140605 56 203 3.0 11.0 0.00 0.00 0.00 69 1001.7
20260504140506 56 210 3.0 11.0 0.00 0.00 0.00 70 1001.7
20260504140406 56 210 4.0 11.0 0.00 0.00 0.00 70 1001.7
20260504140327 56 208 4.0 11.0 0.00 0.00 0.00 70 1001.7
20260504140206 56 199 4.0 11.0 0.00 0.00 0.00 69 1001.8
20260504140126 56 192 4.0 11.0 0.00 0.00 0.00 69 1001.7
20260504130805 54 209 4.0 10.0 0.00 0.00 0.00 75 1002.3
20260504130727 54 213 4.0 10.0 0.00 0.00 0.00 75 1002.4
20260504130606 54 212 4.0 10.0 0.00 0.00 0.00 75 1002.4
20260504130506 54 215 4.0 10.0 0.00 0.00 0.00 75 1002.4
20260504130405 53 212 4.0 10.0 0.00 0.00 0.00 75 1002.3
20260504130305 53 209 4.0 10.0 0.00 0.00 0.00 76 1002.3
20260504130206 53 208 4.0 10.0 0.00 0.00 0.00 75 1002.4
20260504130105 53 214 4.0 10.0 0.00 0.00 0.00 76 1002.4
20260504120305 50 219 3.0 11.0 0.00 0.00 0.00 84 1002.4
20260504120205 50 216 3.0 11.0 0.00 0.00 0.00 84 1002.4
20260504120106 50 211 3.0 11.0 0.00 0.00 0.00 84 1002.4
20260504110705 48 191 1.0 7.0 0.00 0.00 0.00 88 1001.9
20260504110605 48 193 1.0 7.0 0.00 0.00 0.00 88 1001.8
20260504110505 48 199 1.0 7.0 0.00 0.00 0.00 88 1001.8
20260504110405 47 195 1.0 7.0 0.00 0.00 0.00 88 1001.8
20260504110306 47 188 1.0 4.0 0.00 0.00 0.00 88 1001.8
20260504110206 47 189 1.0 4.0 0.00 0.00 0.00 88 1001.8
20260504110126 47 190 1.0 4.0 0.00 0.00 0.00 88 1001.8
20260504100605 47 0 0.0 1.0 0.00 0.00 0.00 87 1001.8
20260504100505 47 0 0.0 1.0 0.00 0.00 0.00 87 1001.8
20260504100426 47 0 0.0 1.0 0.00 0.00 0.00 87 1001.8
20260504100306 47 0 0.0 1.0 0.00 0.00 0.00 87 1001.8
20260504100205 47 0 0.0 1.0 0.00 0.00 0.00 87 1001.8
20260504100105 47 0 0.0 1.0 0.00 0.00 0.00 87 1001.9
20260504090105 50 0 0.0 1.0 0.00 0.00 0.00 82 1002.4
20260504081905 52 225 2.0 9.0 0.00 0.00 0.00 78 1002.5
20260504081805 52 232 2.0 9.0 0.00 0.00 0.00 78 1002.4
20260504081705 52 224 2.0 9.0 0.00 0.00 0.00 78 1002.4
20260504081605 52 222 2.0 9.0 0.00 0.00 0.00 78 1002.5
20260504081505 52 221 2.0 11.0 0.00 0.00 0.00 78 1002.5
20260504081405 52 221 3.0 11.0 0.00 0.00 0.00 78 1002.5
20260504081326 52 219 3.0 11.0 0.00 0.00 0.00 78 1002.5
20260504081205 52 219 3.0 11.0 0.00 0.00 0.00 78 1002.5
20260504081126 52 221 3.0 11.0 0.00 0.00 0.00 78 1002.4
20260504081005 52 217 3.0 11.0 0.00 0.00 0.00 78 1002.4
20260504080905 52 215 3.0 11.0 0.00 0.00 0.00 78 1002.5
20260504080805 52 215 3.0 11.0 0.00 0.00 0.00 78 1002.4
20260504080705 52 221 3.0 11.0 0.00 0.00 0.00 78 1002.4
20260504080605 52 226 3.0 11.0 0.00 0.00 0.00 78 1002.4
20260504080505 52 219 3.0 10.0 0.00 0.00 0.00 78 1002.5
20260504080405 52 217 3.0 8.0 0.00 0.00 0.00 78 1002.5
20260504080305 52 221 3.0 7.0 0.00 0.00 0.00 78 1002.5
20260504080205 52 218 3.0 9.0 0.00 0.00 0.00 78 1002.5
20260504080105 52 215 3.0 9.0 0.00 0.00 0.00 78 1002.5
20260504070405 54 222 6.0 14.0 0.00 0.00 0.00 75 1003.0
20260504070326 54 224 6.0 14.0 0.00 0.00 0.00 75 1003.0
20260504070205 54 221 6.0 14.0 0.00 0.00 0.00 75 1002.9
20260504070105 54 220 5.0 14.0 0.00 0.00 0.00 75 1003.1
20260504060205 54 216 6.0 15.0 0.00 0.00 0.00 73 1003.3
20260504060105 54 215 6.0 19.0 0.00 0.00 0.00 73 1003.3
20260504050705 56 197 5.0 13.0 0.00 0.00 0.00 71 1003.8
20260504050605 56 199 5.0 13.0 0.00 0.00 0.00 70 1003.8
20260504050505 56 200 5.0 14.0 0.00 0.00 0.00 71 1003.8
20260504050404 56 200 5.0 14.0 0.00 0.00 0.00 71 1003.8
20260504050305 56 201 5.0 14.0 0.00 0.00 0.00 70 1003.8
20260504050204 56 207 5.0 15.0 0.00 0.00 0.00 70 1003.8
20260504050126 56 205 5.0 15.0 0.00 0.00 0.00 70 1003.8
20260504050005 56 207 5.0 15.0 0.00 0.00 0.00 70 1003.8
20260504045905 56 209 5.0 15.0 0.00 0.00 0.00 70 1003.8
20260504045825 56 211 5.0 15.0 0.00 0.00 0.00 70 1003.8
20260504045705 56 209 5.0 15.0 0.00 0.00 0.00 70 1003.8
20260504045625 56 209 5.0 15.0 0.00 0.00 0.00 70 1003.8
20260504045505 56 212 5.0 15.0 0.00 0.00 0.00 70 1003.8
20260504045404 56 213 5.0 15.0 0.00 0.00 0.00 70 1003.8
20260504045304 56 211 5.0 15.0 0.00 0.00 0.00 70 1003.8
20260504045225 56 211 5.0 14.0 0.00 0.00 0.00 70 1003.9
20260504045105 56 213 5.0 13.0 0.00 0.00 0.00 70 1003.9
20260504045005 56 217 5.0 13.0 0.00 0.00 0.00 70 1003.9
20260504044904 56 214 5.0 13.0 0.00 0.00 0.00 70 1003.8
20260504044804 56 213 5.0 13.0 0.00 0.00 0.00 70 1003.8
20260504044705 56 213 5.0 13.0 0.00 0.00 0.00 70 1003.9
20260504044605 56 209 5.0 13.0 0.00 0.00 0.00 70 1003.8
20260504044505 56 205 5.0 13.0 0.00 0.00 0.00 70 1003.8
20260504044404 56 201 4.0 11.0 0.00 0.00 0.00 70 1003.9
20260504044304 56 201 5.0 11.0 0.00 0.00 0.00 70 1003.9
20260504044205 56 200 5.0 11.0 0.00 0.00 0.00 70 1004.0
20260504044105 56 199 5.0 11.0 0.00 0.00 0.00 70 1003.9
20260504044005 56 196 5.0 11.0 0.00 0.00 0.00 70 1003.9
20260504043905 56 198 4.0 10.0 0.00 0.00 0.00 70 1003.9
20260504043804 56 197 5.0 11.0 0.00 0.00 0.00 70 1003.9
20260504043704 56 198 5.0 14.0 0.00 0.00 0.00 70 1003.9
20260504043605 56 202 5.0 16.0 0.00 0.00 0.00 70 1004.0
20260504043504 56 202 5.0 16.0 0.00 0.00 0.00 70 1004.0
20260504043426 56 203 5.0 16.0 0.00 0.00 0.00 70 1004.1
20260504043304 56 207 5.0 16.0 0.00 0.00 0.00 70 1004.0
20260504043204 56 205 5.0 16.0 0.00 0.00 0.00 70 1004.0
20260504043105 56 208 6.0 16.0 0.00 0.00 0.00 70 1004.0
20260504043025 56 205 6.0 16.0 0.00 0.00 0.00 70 1004.0
20260504042904 56 204 6.0 16.0 0.00 0.00 0.00 70 1004.0
20260504042804 56 204 6.0 16.0 0.00 0.00 0.00 70 1004.0
20260504042704 56 203 6.0 16.0 0.00 0.00 0.00 70 1004.0
20260504042604 56 203 5.0 15.0 0.00 0.00 0.00 70 1004.1
20260504042504 56 204 5.0 12.0 0.00 0.00 0.00 70 1004.1
20260504042404 56 204 5.0 12.0 0.00 0.00 0.00 70 1004.2
20260504042304 56 203 5.0 12.0 0.00 0.00 0.00 70 1004.2
20260504042205 56 207 5.0 12.0 0.00 0.00 0.00 70 1004.2
20260504042104 56 204 5.0 12.0 0.00 0.00 0.00 70 1004.1
20260504042004 56 204 5.0 12.0 0.00 0.00 0.00 70 1004.1
20260504041904 56 208 5.0 12.0 0.00 0.00 0.00 70 1004.1
20260504041804 56 211 4.0 16.0 0.00 0.00 0.00 70 1004.2
20260504041704 56 213 4.0 16.0 0.00 0.00 0.00 70 1004.2
20260504041605 56 215 4.0 16.0 0.00 0.00 0.00 70 1004.2
20260504041504 56 214 5.0 16.0 0.00 0.00 0.00 70 1004.2
20260504041404 56 210 4.0 16.0 0.00 0.00 0.00 70 1004.2
20260504041325 56 206 4.0 16.0 0.00 0.00 0.00 70 1004.3
20260504041205 56 202 4.0 16.0 0.00 0.00 0.00 70 1004.3
20260504041105 56 204 5.0 16.0 0.00 0.00 0.00 70 1004.3
20260504041004 56 204 5.0 16.0 0.00 0.00 0.00 70 1004.2
20260504040904 56 201 4.0 16.0 0.00 0.00 0.00 70 1004.2
20260504040804 56 196 4.0 13.0 0.00 0.00 0.00 70 1004.3
20260504040704 56 196 4.0 13.0 0.00 0.00 0.00 70 1004.3
20260504040626 56 194 4.0 13.0 0.00 0.00 0.00 70 1004.3
20260504040504 55 193 4.0 13.0 0.00 0.00 0.00 70 1004.3
20260504040404 55 199 4.0 13.0 0.00 0.00 0.00 70 1004.3
20260504040304 55 202 4.0 13.0 0.00 0.00 0.00 70 1004.4
20260504040204 55 203 4.0 13.0 0.00 0.00 0.00 70 1004.4
20260504040126 55 203 4.0 13.0 0.00 0.00 0.00 70 1004.3
20260504040006 55 203 4.0 11.0 0.00 0.00 0.00 70 1004.3
20260504035926 55 201 4.0 11.0 0.00 0.00 0.00 70 1004.3
20260504035804 56 203 4.0 11.0 0.00 0.00 0.00 70 1004.3
20260504035704 56 202 4.0 11.0 0.00 0.00 0.00 70 1004.4
20260504035605 56 205 4.0 11.0 0.00 0.00 0.00 70 1004.4
20260504035504 55 203 4.0 11.0 0.00 0.00 0.00 70 1004.4
20260504035405 55 199 4.0 11.0 0.00 0.00 0.00 70 1004.4
20260504035305 55 198 4.0 9.0 0.00 0.00 0.00 70 1004.4
20260504035204 55 201 4.0 9.0 0.00 0.00 0.00 70 1004.4
20260504035104 55 197 4.0 9.0 0.00 0.00 0.00 70 1004.4
20260504035004 56 198 4.0 9.0 0.00 0.00 0.00 70 1004.4
20260504034904 56 200 4.0 9.0 0.00 0.00 0.00 70 1004.5
20260504034804 56 199 4.0 9.0 0.00 0.00 0.00 70 1004.4
20260504034704 56 200 4.0 9.0 0.00 0.00 0.00 69 1004.4
20260504034605 56 194 4.0 9.0 0.00 0.00 0.00 69 1004.5
20260504034505 56 193 4.0 11.0 0.00 0.00 0.00 69 1004.5
20260504034405 56 194 4.0 11.0 0.00 0.00 0.00 69 1004.5
20260504034304 56 195 3.0 11.0 0.00 0.00 0.00 69 1004.5
20260504034225 56 194 3.0 11.0 0.00 0.00 0.00 69 1004.5
20260504034105 56 195 3.0 12.0 0.00 0.00 0.00 69 1004.5
20260504034004 56 193 3.0 12.0 0.00 0.00 0.00 69 1004.5
20260504033926 56 195 3.0 12.0 0.00 0.00 0.00 69 1004.5
20260504033804 56 194 4.0 12.0 0.00 0.00 0.00 69 1004.5
20260504033725 56 193 4.0 12.0 0.00 0.00 0.00 69 1004.5
20260504033605 56 198 4.0 12.0 0.00 0.00 0.00 69 1004.5
20260504033504 56 199 4.0 12.0 0.00 0.00 0.00 69 1004.5
20260504033404 56 196 4.0 15.0 0.00 0.00 0.00 69 1004.5
20260504033304 56 196 4.0 15.0 0.00 0.00 0.00 69 1004.5
20260504033204 56 200 4.0 15.0 0.00 0.00 0.00 69 1004.5
20260504033104 56 194 4.0 15.0 0.00 0.00 0.00 69 1004.5
20260504033005 56 195 4.0 15.0 0.00 0.00 0.00 69 1004.5
20260504032904 56 194 4.0 15.0 0.00 0.00 0.00 69 1004.5
20260504032804 56 195 3.0 15.0 0.00 0.00 0.00 69 1004.5
20260504032704 56 194 3.0 15.0 0.00 0.00 0.00 69 1004.5
20260504032604 56 195 3.0 15.0 0.00 0.00 0.00 69 1004.5
20260504032504 56 195 3.0 15.0 0.00 0.00 0.00 69 1004.5
20260504032425 56 196 3.0 15.0 0.00 0.00 0.00 69 1004.5
20260504032304 56 197 3.0 10.0 0.00 0.00 0.00 69 1004.5
20260504032204 56 191 2.0 10.0 0.00 0.00 0.00 69 1004.5
20260504032104 56 198 2.0 10.0 0.00 0.00 0.00 69 1004.5
20260504032004 56 198 2.0 10.0 0.00 0.00 0.00 68 1004.6
20260504031925 56 200 2.0 10.0 0.00 0.00 0.00 68 1004.6
20260504031804 56 200 2.0 10.0 0.00 0.00 0.00 68 1004.5
20260504031704 56 204 2.0 10.0 0.00 0.00 0.00 68 1004.5
20260504031605 56 200 2.0 10.0 0.00 0.00 0.00 68 1004.5
20260504031505 56 202 2.0 10.0 0.00 0.00 0.00 68 1004.5
20260504031404 56 202 2.0 10.0 0.00 0.00 0.00 68 1004.5
20260504031304 56 202 2.0 10.0 0.00 0.00 0.00 68 1004.5
20260504031204 56 200 2.0 10.0 0.00 0.00 0.00 68 1004.5
20260504031104 56 197 3.0 10.0 0.00 0.00 0.00 67 1004.5
20260504031004 56 195 3.0 10.0 0.00 0.00 0.00 67 1004.6
20260504030904 56 193 3.0 10.0 0.00 0.00 0.00 67 1004.6
20260504030804 56 195 3.0 9.0 0.00 0.00 0.00 67 1004.5
20260504030725 56 187 3.0 9.0 0.00 0.00 0.00 67 1004.5
20260504030626 56 186 3.0 9.0 0.00 0.00 0.00 67 1004.5
20260504030504 56 191 3.0 9.0 0.00 0.00 0.00 67 1004.5
20260504030425 56 190 3.0 9.0 0.00 0.00 0.00 67 1004.5
20260504030304 56 193 3.0 11.0 0.00 0.00 0.00 67 1004.5
20260504030204 56 195 3.0 11.0 0.00 0.00 0.00 67 1004.5
20260504030125 56 196 3.0 11.0 0.00 0.00 0.00 67 1004.5
20260504030025 56 195 3.0 11.0 0.00 0.00 0.00 67 1004.6
20260504025904 56 198 3.0 11.0 0.00 0.00 0.00 67 1004.5
20260504025804 56 194 3.0 11.0 0.00 0.00 0.00 67 1004.5
20260504025704 56 198 3.0 11.0 0.00 0.00 0.00 67 1004.6
20260504025604 56 200 2.0 11.0 0.00 0.00 0.00 67 1004.6
20260504025504 56 196 3.0 11.0 0.00 0.00 0.00 67 1004.5
20260504025404 56 201 3.0 11.0 0.00 0.00 0.00 67 1004.5
20260504025304 56 197 3.0 10.0 0.00 0.00 0.00 67 1004.5
20260504025225 56 199 3.0 10.0 0.00 0.00 0.00 67 1004.6
20260504025105 56 199 3.0 10.0 0.00 0.00 0.00 67 1004.6
20260504025005 56 201 3.0 10.0 0.00 0.00 0.00 67 1004.6
20260504024905 56 199 3.0 13.0 0.00 0.00 0.00 67 1004.5
20260504024825 56 202 3.0 13.0 0.00 0.00 0.00 67 1004.5
20260504024704 56 204 3.0 13.0 0.00 0.00 0.00 67 1004.6
20260504024604 56 204 4.0 13.0 0.00 0.00 0.00 67 1004.6
20260504024504 56 202 4.0 13.0 0.00 0.00 0.00 67 1004.6
20260504024404 56 195 4.0 13.0 0.00 0.00 0.00 67 1004.7
20260504024304 56 197 4.0 13.0 0.00 0.00 0.00 67 1004.7
20260504024204 56 197 4.0 13.0 0.00 0.00 0.00 67 1004.7
20260504024104 56 194 4.0 13.0 0.00 0.00 0.00 67 1004.7
20260504024004 56 195 4.0 13.0 0.00 0.00 0.00 67 1004.7
20260504023904 56 192 4.0 12.0 0.00 0.00 0.00 67 1004.7
20260504023804 56 189 4.0 12.0 0.00 0.00 0.00 67 1004.7
20260504023704 56 192 4.0 12.0 0.00 0.00 0.00 67 1004.7
20260504023604 56 193 4.0 12.0 0.00 0.00 0.00 67 1004.7
20260504023504 56 195 4.0 12.0 0.00 0.00 0.00 67 1004.7
20260504023404 56 198 4.0 12.0 0.00 0.00 0.00 67 1004.7
20260504023304 56 195 4.0 12.0 0.00 0.00 0.00 67 1004.7
20260504023225 56 196 4.0 11.0 0.00 0.00 0.00 67 1004.7
20260504023125 56 201 4.0 10.0 0.00 0.00 0.00 67 1004.7
20260504023004 56 200 4.0 12.0 0.00 0.00 0.00 67 1004.7
20260504022904 56 197 4.0 12.0 0.00 0.00 0.00 67 1004.7
20260504022804 57 203 4.0 12.0 0.00 0.00 0.00 66 1004.7
20260504022704 57 201 4.0 18.0 0.00 0.00 0.00 66 1004.7
20260504022604 57 199 5.0 18.0 0.00 0.00 0.00 66 1004.7
20260504022504 57 200 4.0 18.0 0.00 0.00 0.00 66 1004.7
20260504022404 57 201 4.0 18.0 0.00 0.00 0.00 66 1004.7
20260504022305 57 203 5.0 18.0 0.00 0.00 0.00 66 1004.7
20260504022225 57 202 5.0 18.0 0.00 0.00 0.00 66 1004.7
20260504022104 57 198 4.0 18.0 0.00 0.00 0.00 66 1004.7
20260504022025 57 199 4.0 18.0 0.00 0.00 0.00 66 1004.7
20260504021904 57 204 4.0 18.0 0.00 0.00 0.00 66 1004.7
20260504021804 57 196 4.0 18.0 0.00 0.00 0.00 66 1004.7
20260504021704 57 193 4.0 12.0 0.00 0.00 0.00 66 1004.7
20260504021604 57 197 4.0 12.0 0.00 0.00 0.00 66 1004.7
20260504021504 57 193 4.0 12.0 0.00 0.00 0.00 66 1004.7
20260504021404 57 191 4.0 13.0 0.00 0.00 0.00 66 1004.8
20260504021304 57 192 4.0 13.0 0.00 0.00 0.00 65 1004.8
20260504021204 57 194 4.0 13.0 0.00 0.00 0.00 65 1004.8
20260504021104 57 193 5.0 13.0 0.00 0.00 0.00 65 1004.8
20260504021025 57 191 5.0 13.0 0.00 0.00 0.00 65 1004.8
20260504020925 57 191 5.0 13.0 0.00 0.00 0.00 65 1004.9
20260504020804 57 197 5.0 13.0 0.00 0.00 0.00 65 1004.9
20260504020704 57 199 5.0 13.0 0.00 0.00 0.00 65 1004.8
20260504020604 57 199 5.0 13.0 0.00 0.00 0.00 65 1004.9
20260504020504 57 201 4.0 13.0 0.00 0.00 0.00 65 1004.9
20260504020404 57 203 5.0 13.0 0.00 0.00 0.00 65 1004.8
20260504020305 57 204 5.0 13.0 0.00 0.00 0.00 65 1004.8
20260504020204 57 204 5.0 13.0 0.00 0.00 0.00 65 1004.8
20260504020104 57 204 4.0 11.0 0.00 0.00 0.00 65 1004.8
20260504020004 57 206 5.0 12.0 0.00 0.00 0.00 65 1004.8
20260504015925 57 205 5.0 13.0 0.00 0.00 0.00 65 1004.8
20260504015804 57 201 5.0 13.0 0.00 0.00 0.00 65 1004.8
20260504015704 57 200 5.0 13.0 0.00 0.00 0.00 65 1004.8
20260504015625 57 201 5.0 13.0 0.00 0.00 0.00 65 1004.9
20260504015505 57 201 5.0 13.0 0.00 0.00 0.00 65 1004.9
20260504015404 57 205 6.0 15.0 0.00 0.00 0.00 65 1004.8
20260504015305 57 203 5.0 15.0 0.00 0.00 0.00 65 1004.8
20260504015204 57 200 6.0 15.0 0.00 0.00 0.00 65 1004.8
20260504015104 57 198 6.0 16.0 0.00 0.00 0.00 65 1004.9
20260504015004 57 199 5.0 16.0 0.00 0.00 0.00 65 1004.9
20260504014904 57 199 5.0 16.0 0.00 0.00 0.00 65 1004.9
20260504014825 57 200 5.0 16.0 0.00 0.00 0.00 66 1004.9
20260504014725 57 201 5.0 16.0 0.00 0.00 0.00 66 1004.9
20260504014604 57 199 6.0 16.0 0.00 0.00 0.00 66 1004.9
20260504014504 57 198 6.0 16.0 0.00 0.00 0.00 65 1004.9
20260504014404 57 194 5.0 16.0 0.00 0.00 0.00 65 1004.9
20260504014304 57 193 6.0 16.0 0.00 0.00 0.00 65 1004.9
20260504014204 57 196 5.0 16.0 0.00 0.00 0.00 65 1004.9
20260504014104 57 195 5.0 14.0 0.00 0.00 0.00 65 1004.8
20260504014004 57 197 5.0 14.0 0.00 0.00 0.00 65 1004.8
20260504013925 57 198 5.0 14.0 0.00 0.00 0.00 65 1004.8
20260504013825 57 201 5.0 14.0 0.00 0.00 0.00 65 1004.9
20260504013704 57 199 5.0 14.0 0.00 0.00 0.00 65 1004.9
20260504013604 57 199 5.0 14.0 0.00 0.00 0.00 65 1004.9
20260504013525 57 198 5.0 14.0 0.00 0.00 0.00 65 1004.9
20260504013404 57 198 5.0 13.0 0.00 0.00 0.00 65 1004.9
20260504013304 57 202 5.0 13.0 0.00 0.00 0.00 65 1004.9
20260504013204 57 198 5.0 13.0 0.00 0.00 0.00 65 1004.9
20260504013104 57 200 5.0 13.0 0.00 0.00 0.00 65 1004.9
20260504013004 57 196 5.0 15.0 0.00 0.00 0.00 65 1005.0
20260504012904 57 194 5.0 15.0 0.00 0.00 0.00 65 1005.0
20260504012825 57 191 5.0 15.0 0.00 0.00 0.00 65 1004.8
20260504012704 57 188 5.0 15.0 0.00 0.00 0.00 65 1004.8
20260504012604 57 187 5.0 15.0 0.00 0.00 0.00 64 1004.8
20260504012504 57 188 5.0 15.0 0.00 0.00 0.00 64 1004.8
20260504012404 57 187 5.0 15.0 0.00 0.00 0.00 65 1004.8
20260504012304 57 185 5.0 15.0 0.00 0.00 0.00 64 1004.8
20260504012225 57 186 5.0 15.0 0.00 0.00 0.00 64 1004.8
20260504012104 57 190 5.0 15.0 0.00 0.00 0.00 64 1004.9
20260504012004 57 190 5.0 14.0 0.00 0.00 0.00 64 1004.8
20260504011904 57 191 4.0 14.0 0.00 0.00 0.00 65 1004.8
20260504011804 56 192 4.0 13.0 0.00 0.00 0.00 65 1004.8
20260504011704 56 204 4.0 16.0 0.00 0.00 0.00 65 1004.9
20260504011604 56 207 5.0 16.0 0.00 0.00 0.00 65 1004.9
20260504011504 56 207 5.0 16.0 0.00 0.00 0.00 65 1004.8
20260504011404 56 208 5.0 16.0 0.00 0.00 0.00 65 1004.8
20260504011304 57 209 5.0 16.0 0.00 0.00 0.00 64 1004.9
20260504011204 57 210 5.0 16.0 0.00 0.00 0.00 64 1004.9
20260504011125 56 208 5.0 16.0 0.00 0.00 0.00 64 1004.9
20260504011004 56 211 5.0 16.0 0.00 0.00 0.00 65 1004.9
20260504010904 57 211 6.0 16.0 0.00 0.00 0.00 64 1004.9
20260504010804 56 210 5.0 16.0 0.00 0.00 0.00 64 1004.9
20260504010704 56 205 5.0 13.0 0.00 0.00 0.00 64 1005.0
20260504010604 56 205 5.0 12.0 0.00 0.00 0.00 65 1005.0
20260504010525 56 207 5.0 15.0 0.00 0.00 0.00 65 1004.9
20260504010404 56 209 5.0 15.0 0.00 0.00 0.00 65 1004.8
20260504010304 56 206 5.0 15.0 0.00 0.00 0.00 64 1004.8
20260504010204 56 204 5.0 15.0 0.00 0.00 0.00 64 1004.8
20260504010104 56 204 5.0 15.0 0.00 0.00 0.00 64 1004.8
20260504010025 56 203 5.0 15.0 0.00 0.00 0.00 64 1004.7
20260504005904 56 199 5.0 15.0 0.00 0.00 0.00 64 1004.7
20260504005825 56 197 5.0 15.0 0.00 0.00 0.00 64 1004.7
20260504005704 56 196 5.0 15.0 0.00 0.00 0.00 64 1004.8
20260504005604 56 196 5.0 15.0 0.00 0.00 0.00 64 1004.8
20260504005504 56 193 5.0 14.0 0.00 0.00 0.00 65 1004.7
20260504005404 56 195 5.0 17.0 0.00 0.00 0.00 64 1004.7
20260504005325 56 195 5.0 17.0 0.00 0.00 0.00 64 1004.7
20260504005204 56 198 5.0 17.0 0.00 0.00 0.00 64 1004.7
20260504005104 56 196 5.0 17.0 0.00 0.00 0.00 65 1004.6
20260504005004 56 197 6.0 17.0 0.00 0.00 0.00 64 1004.6
20260504004904 56 203 6.0 17.0 0.00 0.00 0.00 64 1004.6
20260504004804 56 201 6.0 17.0 0.00 0.00 0.00 64 1004.6
20260504004704 56 204 6.0 17.0 0.00 0.00 0.00 64 1004.7
20260504004604 56 204 5.0 17.0 0.00 0.00 0.00 65 1004.8
20260504004504 56 207 5.0 17.0 0.00 0.00 0.00 65 1004.8
20260504004404 56 206 5.0 14.0 0.00 0.00 0.00 65 1004.7
20260504004304 56 208 6.0 14.0 0.00 0.00 0.00 65 1004.7
20260504004225 56 209 6.0 14.0 0.00 0.00 0.00 65 1004.7
20260504004104 56 205 6.0 19.0 0.00 0.00 0.00 65 1004.7
20260504004004 56 205 6.0 19.0 0.00 0.00 0.00 65 1004.8
20260504003904 56 202 6.0 19.0 0.00 0.00 0.00 65 1004.8
20260504003825 56 201 6.0 19.0 0.00 0.00 0.00 65 1004.7
20260504003704 56 204 6.0 19.0 0.00 0.00 0.00 65 1004.7
20260504003604 56 203 6.0 19.0 0.00 0.00 0.00 65 1004.7
20260504003504 56 202 7.0 19.0 0.00 0.00 0.00 65 1004.7
20260504003425 56 202 7.0 19.0 0.00 0.00 0.00 65 1004.7
20260504003304 56 198 7.0 19.0 0.00 0.00 0.00 65 1004.8
20260504003203 56 194 6.0 19.0 0.00 0.00 0.00 65 1004.8
20260504003104 56 196 6.0 16.0 0.00 0.00 0.00 65 1004.7
20260504003004 56 196 6.0 16.0 0.00 0.00 0.00 65 1004.9
20260504002904 56 194 5.0 16.0 0.00 0.00 0.00 64 1004.9
20260504002804 56 195 5.0 16.0 0.00 0.00 0.00 64 1004.9
20260504002725 56 192 5.0 16.0 0.00 0.00 0.00 64 1004.9
20260504002603 56 190 5.0 16.0 0.00 0.00 0.00 64 1004.7
20260504002504 56 192 5.0 16.0 0.00 0.00 0.00 64 1004.8
20260504002404 56 191 5.0 16.0 0.00 0.00 0.00 64 1004.8
20260504002305 56 192 5.0 16.0 0.00 0.00 0.00 64 1004.9
20260504002204 56 193 5.0 15.0 0.00 0.00 0.00 64 1004.9
20260504002104 56 192 5.0 15.0 0.00 0.00 0.00 64 1004.9
20260504002004 56 192 6.0 16.0 0.00 0.00 0.00 64 1004.8
20260504001904 56 193 6.0 23.0 0.00 0.00 0.00 64 1004.8
20260504001804 56 193 6.0 23.0 0.00 0.00 0.00 64 1004.8
20260504001704 56 189 7.0 23.0 0.00 0.00 0.00 64 1004.9
20260504001604 56 190 7.0 23.0 0.00 0.00 0.00 64 1004.9
20260504001504 57 188 7.0 23.0 0.00 0.00 0.00 64 1005.0
20260504001424 57 187 7.0 23.0 0.00 0.00 0.00 64 1005.0
20260504001304 56 191 7.0 23.0 0.00 0.00 0.00 64 1004.9
20260504001204 57 194 7.0 23.0 0.00 0.00 0.00 64 1004.9
20260504001104 56 198 7.0 23.0 0.00 0.00 0.00 64 1004.9
20260504001003 56 199 7.0 23.0 0.00 0.00 0.00 64 1004.9
20260504000904 57 202 7.0 22.0 0.00 0.00 0.00 64 1005.0
20260504000804 57 204 7.0 22.0 0.00 0.00 0.00 64 1005.0
20260504000725 57 207 7.0 17.0 0.00 0.00 0.00 64 1004.9
20260504000604 57 210 6.0 17.0 0.00 0.00 0.00 64 1004.9
20260504000504 57 212 6.0 17.0 0.00 0.00 0.00 64 1004.9
20260504000404 57 210 6.0 21.0 0.00 0.00 0.00 63 1004.9
20260504000304 57 207 7.0 21.0 0.00 0.00 0.00 63 1004.9
20260504000205 57 204 6.0 21.0 0.00 0.00 0.00 63 1004.8
20260504000104 57 202 7.0 21.0 0.00 0.00 0.00 63 1004.8
20260504000004 57 202 7.0 21.0 0.00 0.00 0.00 63 1005.0
20260503235904 57 199 6.0 21.0 0.00 0.00 0.00 63 1004.8
20260503235804 57 197 6.0 21.0 0.00 0.00 0.00 63 1004.8
20260503235704 57 196 7.0 21.0 0.00 0.00 0.00 63 1004.8
20260503235604 57 197 7.0 21.0 0.00 0.00 0.00 63 1004.8
20260503235504 57 197 7.0 21.0 0.00 0.00 0.00 63 1004.9
20260503235404 57 199 7.0 20.0 0.00 0.00 0.00 63 1004.8
20260503235304 57 198 7.0 20.0 0.00 0.00 0.00 62 1004.8
20260503235204 57 197 7.0 18.0 0.00 0.00 0.00 62 1004.8
20260503235104 57 196 7.0 18.0 0.00 0.00 0.00 62 1005.0
20260503235025 57 195 7.0 18.0 0.00 0.00 0.00 62 1005.0
20260503234925 57 194 7.0 18.0 0.00 0.00 0.00 62 1005.0
20260503234804 57 199 7.0 18.0 0.00 0.00 0.00 62 1005.0
20260503234704 57 200 6.0 18.0 0.00 0.00 0.00 62 1005.0
20260503234625 57 199 6.0 18.0 0.00 0.00 0.00 61 1005.0
20260503234504 57 201 7.0 19.0 0.00 0.00 0.00 61 1005.2
20260503234403 57 199 7.0 19.0 0.00 0.00 0.00 61 1005.0
20260503234304 57 198 7.0 19.0 0.00 0.00 0.00 61 1005.0
20260503234205 57 201 6.0 19.0 0.00 0.00 0.00 61 1005.2
20260503234125 57 203 6.0 19.0 0.00 0.00 0.00 61 1005.2
20260503234004 57 205 6.0 19.0 0.00 0.00 0.00 61 1005.2
20260503233904 57 205 6.0 19.0 0.00 0.00 0.00 61 1005.2
20260503233804 57 202 6.0 19.0 0.00 0.00 0.00 61 1005.2
20260503233704 57 200 6.0 19.0 0.00 0.00 0.00 61 1005.3
20260503233625 57 199 6.0 19.0 0.00 0.00 0.00 61 1005.3
20260503233504 57 198 5.0 18.0 0.00 0.00 0.00 61 1005.4
20260503233403 57 198 5.0 17.0 0.00 0.00 0.00 61 1005.3
20260503233303 57 202 5.0 17.0 0.00 0.00 0.00 61 1005.3
20260503233204 57 202 5.0 17.0 0.00 0.00 0.00 61 1005.3
20260503233104 57 203 6.0 17.0 0.00 0.00 0.00 61 1005.3
20260503233004 57 202 6.0 17.0 0.00 0.00 0.00 60 1005.3
20260503232904 57 196 6.0 16.0 0.00 0.00 0.00 60 1005.4
20260503232803 57 194 6.0 15.0 0.00 0.00 0.00 60 1005.6
20260503232704 57 195 6.0 15.0 0.00 0.00 0.00 60 1005.6
20260503232604 58 195 6.0 15.0 0.00 0.00 0.00 60 1005.4
20260503232503 57 195 7.0 15.0 0.00 0.00 0.00 60 1005.4
20260503232404 57 193 7.0 15.0 0.00 0.00 0.00 60 1005.5
20260503232324 57 195 7.0 15.0 0.00 0.00 0.00 60 1005.5
20260503232204 57 194 6.0 15.0 0.00 0.00 0.00 60 1005.5
20260503232104 57 193 7.0 15.0 0.00 0.00 0.00 59 1005.6
20260503232004 57 192 6.0 15.0 0.00 0.00 0.00 59 1005.6
20260503231904 57 195 6.0 17.0 0.00 0.00 0.00 59 1005.5
20260503231804 57 198 6.0 17.0 0.00 0.00 0.00 60 1005.6
20260503231703 57 199 6.0 17.0 0.00 0.00 0.00 59 1005.6
20260503231603 57 201 6.0 17.0 0.00 0.00 0.00 59 1005.7
20260503231504 57 201 6.0 17.0 0.00 0.00 0.00 59 1005.7
20260503231426 57 204 6.0 17.0 0.00 0.00 0.00 59 1005.7
20260503231303 57 200 6.0 17.0 0.00 0.00 0.00 60 1005.8
20260503231203 57 200 6.0 17.0 0.00 0.00 0.00 59 1005.8
20260503231103 57 198 6.0 17.0 0.00 0.00 0.00 59 1005.8
20260503231004 57 203 6.0 17.0 0.00 0.00 0.00 59 1005.8
20260503230904 57 202 6.0 15.0 0.00 0.00 0.00 60 1005.8
20260503230804 57 200 6.0 15.0 0.00 0.00 0.00 59 1005.9
20260503230703 57 195 6.0 15.0 0.00 0.00 0.00 60 1005.9
20260503230604 57 195 7.0 21.0 0.00 0.00 0.00 59 1005.8
20260503230504 57 192 6.0 21.0 0.00 0.00 0.00 59 1005.9
20260503230425 57 190 6.0 21.0 0.00 0.00 0.00 59 1005.9
20260503230304 57 192 6.0 21.0 0.00 0.00 0.00 59 1005.8
20260503230204 57 191 7.0 21.0 0.00 0.00 0.00 59 1005.9
20260503230104 57 191 7.0 21.0 0.00 0.00 0.00 59 1005.9
20260503230004 57 191 7.0 21.0 0.00 0.00 0.00 59 1005.9
20260503225904 57 196 7.0 21.0 0.00 0.00 0.00 59 1005.9
20260503225804 57 196 7.0 21.0 0.00 0.00 0.00 59 1005.9
20260503225724 57 198 7.0 21.0 0.00 0.00 0.00 59 1005.9
20260503225603 57 199 6.0 21.0 0.00 0.00 0.00 59 1005.9
20260503225505 57 203 6.0 18.0 0.00 0.00 0.00 59 1005.8
20260503225404 57 207 6.0 16.0 0.00 0.00 0.00 59 1005.9
20260503225305 57 208 6.0 16.0 0.00 0.00 0.00 59 1005.9
20260503225204 57 208 6.0 16.0 0.00 0.00 0.00 59 1005.9
20260503225104 57 209 6.0 16.0 0.00 0.00 0.00 59 1006.0
20260503225004 57 205 6.0 16.0 0.00 0.00 0.00 59 1006.0
20260503224904 57 202 6.0 16.0 0.00 0.00 0.00 59 1006.0
20260503224825 57 202 6.0 16.0 0.00 0.00 0.00 59 1006.0
20260503224704 57 201 6.0 16.0 0.00 0.00 0.00 59 1006.1
20260503224603 57 203 7.0 21.0 0.00 0.00 0.00 58 1006.1
20260503224503 57 201 7.0 21.0 0.00 0.00 0.00 59 1006.1
20260503224404 57 200 7.0 21.0 0.00 0.00 0.00 59 1006.1
20260503224304 57 198 6.0 21.0 0.00 0.00 0.00 60 1006.1
20260503224204 57 196 7.0 21.0 0.00 0.00 0.00 60 1006.2
20260503224103 57 196 6.0 21.0 0.00 0.00 0.00 60 1006.1
20260503224003 57 198 6.0 21.0 0.00 0.00 0.00 59 1006.1